Lexington Weather

Lexington, Massachusetts, USA

45°F
5/12/2021 3:15am 
  • Lexington Conditions: Clear
  • Temperature: 45.3°F / 7.4°CColder 1.5°F than last hour.
  • Dew Point: 31.8°FIncreased 0.9°Fsince last hour.
  • Relative Humidity: 59%Increased 5.0% since last hour.
  • Wind: Wind from SW SW Calm, 10-min avg: 1 mph, gust: 7 mph
  • Barometer: 29.92 in Steady
  • Visibility: 10 miles
  • Rain Today: 0.00 in
  •   

Regional Weather Roundup
for Boston / Norton, MA

        
000
ASUS41 KBOX 090404
RWRBOX

REGIONAL WEATHER ROUNDUP
NATIONAL WEATHER SERVICE BOSTON/NORTON MA
1200 AM EDT SUN MAY 09 2021

NOTE:  "FAIR" INDICATES FEW OR NO CLOUDS BELOW 12,000 FEET WITH NO 
SIGNIFICANT WEATHER AND/OR OBSTRUCTIONS TO VISIBILITY.

MAZALL-090500-
EASTERN MASSACHUSETTS
  
CITY           SKY/WX    TMP DP  RH WIND       PRES   REMARKS
BOSTON         CLOUDY    52  39  61 SW17      29.88S                  
BEVERLY        CLOUDY    51  39  63 SW10      29.85F                  
LAWRENCE       CLOUDY    52  39  61 SW12      29.87S                  
BEDFORD        CLOUDY    50  39  66 W7        29.87S                  
BLUE HILL        N/A     46  39  76 SW10      29.87S                  
NORWOOD        CLOUDY    50  40  68 SW6       29.89S                  
MARSHFIELD     CLOUDY    50  43  76 VRB7G14   29.89S                  
PLYMOUTH       MOCLDY    48  40  73 SW7       29.89F                  
TAUNTON        CLOUDY    48  41  76 SW6       29.91S                  
NEW BEDFORD    MOCLDY    48  40  73 SW8       29.91S                  
$$

MAZALL-090500-
CAPE COD AND THE ISLANDS
  
CITY           SKY/WX    TMP DP  RH WIND       PRES   REMARKS
FALMOUTH       PTCLDY    48  39  71 SW12      29.92S                  
HYANNIS        CLOUDY    50  41  71 SW13      29.89F                  
CHATHAM        CLOUDY    49  41  74 W9        29.91F                  
PROVINCETOWN   CLOUDY    49  42  77 SW16      29.89F                  
NANTUCKET      CLOUDY    48  40  73 W12       29.93S                  
MARTHAS VNYRD  CLOUDY    47  41  80 SW6       29.93S                  
$$
 
MAZALL-090500-
CENTRAL AND WESTERN MASSACHUSETTS
  
CITY           SKY/WX    TMP DP  RH WIND       PRES   REMARKS
WORCESTER      PTCLDY    48  37  65 W10       29.89S                  
FITCHBURG      CLOUDY    51  39  63 W8        29.89S                  
ORANGE         CLOUDY    49  40  71 W8        29.92R                  
SPRINGFIELD    CLOUDY    48  39  70 NW6       29.92R                  
WESTFIELD      CLOUDY    49  41  74 VRB3      29.93S                  
NORTH ADAMS    CLOUDY    47  43  86 CALM      29.93F                  
PITTSFIELD     CLOUDY    44  41  89 W3        29.92S                  
$$
 
RIZALL-090500-
RHODE ISLAND
  
CITY           SKY/WX    TMP DP  RH WIND       PRES   REMARKS
PROVIDENCE     MOCLDY    49  41  74 W9        29.92S                  
NEWPORT        PTCLDY    47  39  74 VRB3      29.93S                  
BLOCK ISLAND   PTCLDY    47  41  80 W9        29.95S                  
SMITHFIELD       N/A     47  42  83 W8        29.91S                  
WESTERLY       PTCLDY    45  39  79 W3        29.94S                  
$$
 
CTZALL-090500-
CONNECTICUT
  
CITY           SKY/WX    TMP DP  RH WIND       PRES   REMARKS
BRADLEY INTL   CLOUDY    49  41  74 W6        29.93S                  
HARTFORD       MOCLDY    50  42  74 SW3       29.94S                  
BRIDGEPORT     CLEAR     49  42  77 W5        29.96S                  
DANBURY        PTCLDY    42  40  92 CALM      29.97R FOG              
GROTON         PTCLDY    48  40  73 W7        29.94S                  
NEW HAVEN      PTCLDY    49  42  77 CALM      29.96S                  
CHESTER        FAIR      45  43  93 W5        29.94S                  
MERIDEN        PTCLDY    42  39  89 CALM      29.95F                  
WILLIMANTIC    CLOUDY    47  41  80 W5        29.93S                  
OXFORD         CLEAR     42  42 100 NW3       29.95F                  
$$

MEZ002-015-021-024-NHZ003-005-008-011-012-014-VTZ005-008-090500-
NORTHERN NEW ENGLAND
  
CITY           SKY/WX    TMP DP  RH WIND       PRES   REMARKS
PORTLAND ME    CLOUDY    48  38  68 W6        29.80S                  
BANGOR ME      MOCLDY    46  32  58 W6        29.76F                  
CONCORD NH     MOCLDY    50  35  56 W5        29.85S                  
MANCHESTER NH  CLOUDY    54  35  48 W6        29.84S                  
NASHUA NH      CLOUDY    52  37  56 W7        29.87S                  
PORTSMOUTH NH  CLOUDY    52  34  50 W7        29.84R                  
JAFFREY NH     CLOUDY    49  39  68 W6        29.89R                  
KEENE NH       PTCLDY    45  40  82 SE5       29.91R                  
BURLINGTON VT  NOT AVBL                                               
MT. WASHINGTON FLURRIES  23  21  93 NW38        N/A  WCI   4          
$$

NYZ052-076-090500-
EASTERN NEW YORK
  
CITY           SKY/WX    TMP DP  RH WIND       PRES   REMARKS
ALBANY         CLOUDY    45  41  86 NW3       29.96S                  
NEW YORK CITY  PTCLDY    51  40  65 W10       29.99R                  
$$
 
ANZALL-090500-
MARINE OBSERVATIONS
  
STATION/POSITION TIME  TEMP    WIND        PRES    VSBY  WAVE
                       AIR SEA DIR/SP/G                  HT/PER
                 (UTC) (F)     (DEG/KT/KT) (MB)    (MI)  (FT/S)
BOSTON BUOY      0340   49 47  230/ 14/ 17 1011.4S
BUZZARDS BAY     0300          250/ 14/ 15 1014.5S
NANTUCKET SOUND  0340      52                N/A
MASS BAY-STELLWA 0304   50     230/ 14/ 19 1010.1R  1 7/8  5/11
ISLE OF SHOALS   0300   50     230/ 19/ 20 1009.5F
S OF BLOCK IS    0326      49                N/A           4/ 9
$$

......................KEY.........................
  SKY/WX - SKY CONDITION/PRESENT WEATHER
  TMP    - TEMPERATURE IN FAHRENHEIT
  DWPT   - DEWPOINT IN FAHRENHEIT
  RH     - RELATIVE HUMIDITY IN PERCENT
  WIND   - DIRECTION AND SPEED IN MPH
  PRES   - MEAN SEA LEVEL PRESSURE IN INCHES OF HG
  WCI    - WIND CHILL INDEX
  VSB    - VISIBILITY IN MILES
  HX     - HEAT INDEX
  TC     - TEMPERATURE IN CELSIUS
  VRB    - VARIABLE WIND DIRECTION
  N/A    - NOT AVAILABLE
  
      

Other recent Regional Weather Roundups

Wed May 12, 2:04am

Wed May 12, 1:04am

Wed May 12, 12:05am

Tue May 11, 11:05pm

Tue May 11, 10:04pm

Tue May 11, 9:05pm

Tue May 11, 8:05pm

Tue May 11, 7:04pm

Tue May 11, 6:04pm

Tue May 11, 5:04pm

Tue May 11, 4:05pm

Tue May 11, 3:04pm

Tue May 11, 2:05pm

Tue May 11, 1:04pm

Tue May 11, 12:05pm

Tue May 11, 11:05am

Tue May 11, 10:04am

Tue May 11, 9:04am

Tue May 11, 8:04am

Tue May 11, 7:05am

Tue May 11, 6:04am

Tue May 11, 5:04am

Tue May 11, 4:04am

Tue May 11, 3:04am

Tue May 11, 2:04am

Tue May 11, 1:04am

Tue May 11, 12:04am

Mon May 10, 11:04pm

Mon May 10, 10:04pm

Mon May 10, 9:05pm

Mon May 10, 8:04pm

Mon May 10, 7:05pm

Mon May 10, 6:04pm

Mon May 10, 5:04pm

Mon May 10, 4:04pm

Mon May 10, 3:04pm

Mon May 10, 2:04pm

Mon May 10, 1:04pm

Mon May 10, 12:04pm

Mon May 10, 11:05am

Mon May 10, 10:04am

Mon May 10, 9:04am

Mon May 10, 8:04am

Mon May 10, 7:04am

Mon May 10, 6:04am

Mon May 10, 5:05am

Mon May 10, 4:04am

Mon May 10, 3:04am

Mon May 10, 2:04am

Mon May 10, 1:04am

Mon May 10, 12:04am

Sun May 9, 11:04pm

Sun May 9, 10:04pm

Sun May 9, 9:04pm

Sun May 9, 8:04pm

Sun May 9, 7:05pm

Sun May 9, 6:04pm

Sun May 9, 5:04pm

Sun May 9, 4:04pm

Sun May 9, 3:04pm

Sun May 9, 2:04pm

Sun May 9, 1:05pm

Sun May 9, 12:04pm

Sun May 9, 11:05am

Sun May 9, 10:04am

Sun May 9, 9:04am

Sun May 9, 8:04am

Sun May 9, 7:04am

Sun May 9, 6:04am

Sun May 9, 5:04am

Sun May 9, 4:04am

Sun May 9, 3:04am

Sun May 9, 2:04am

Sun May 9, 1:05am

Sat May 8, 11:05pm

Sat May 8, 10:04pm

Sat May 8, 9:05pm

Sat May 8, 8:04pm

Sat May 8, 7:04pm

Sat May 8, 6:04pm

Sat May 8, 5:05pm

Sat May 8, 4:04pm

Sat May 8, 3:05pm

Sat May 8, 2:05pm

Sat May 8, 1:05pm

Sat May 8, 12:04pm

Sat May 8, 11:05am

Sat May 8, 10:04am

Sat May 8, 9:04am

Sat May 8, 8:04am

Sat May 8, 7:04am

Sat May 8, 6:04am

Sat May 8, 5:04am

Sat May 8, 4:04am

Sat May 8, 3:04am

Sat May 8, 2:04am

Sat May 8, 1:05am

Sat May 8, 12:04am

Fri May 7, 11:04pm

Fri May 7, 10:05pm

Fri May 7, 9:04pm

Fri May 7, 8:04pm

Fri May 7, 7:05pm

Fri May 7, 6:04pm

Fri May 7, 5:05pm

Fri May 7, 4:04pm

Fri May 7, 3:04pm

Fri May 7, 2:05pm

Fri May 7, 1:04pm

Fri May 7, 12:04pm

Fri May 7, 11:05am

Fri May 7, 10:04am

Fri May 7, 9:04am

Fri May 7, 8:05am

Fri May 7, 7:04am

Fri May 7, 6:04am

Fri May 7, 5:04am

Fri May 7, 4:04am

Fri May 7, 3:04am

Fri May 7, 2:05am

Fri May 7, 1:04am

Fri May 7, 12:05am

Thu May 6, 11:04pm

Thu May 6, 10:04pm

Thu May 6, 9:05pm

Thu May 6, 8:04pm

Thu May 6, 7:04pm

Thu May 6, 6:04pm

Thu May 6, 5:05pm

Thu May 6, 4:04pm

Thu May 6, 3:04pm

Thu May 6, 2:05pm

Thu May 6, 1:04pm

Thu May 6, 12:04pm

Thu May 6, 11:04am

Thu May 6, 10:04am

Thu May 6, 9:04am

Thu May 6, 8:04am

Thu May 6, 7:04am

Thu May 6, 6:04am

Thu May 6, 5:04am

Thu May 6, 4:04am

Thu May 6, 3:04am

Thu May 6, 2:05am

Thu May 6, 1:04am

Thu May 6, 12:05am

Wed May 5, 11:04pm

Wed May 5, 10:04pm

Wed May 5, 9:05pm

Wed May 5, 8:04pm

Wed May 5, 7:05pm

Wed May 5, 6:04pm

Wed May 5, 5:04pm

Wed May 5, 4:04pm

Wed May 5, 3:04pm

Wed May 5, 2:05pm

Wed May 5, 1:05pm

Wed May 5, 12:04pm

Wed May 5, 11:05am

Wed May 5, 10:04am

Wed May 5, 9:04am

Wed May 5, 8:04am

Wed May 5, 7:04am

Wed May 5, 6:05am

Wed May 5, 5:04am

Wed May 5, 4:04am

Wed May 5, 3:04am

Meta data:

ID: a1f1a8ff-e734-424a-9e64-015d6e20bd36
Link: https://api.weather.gov/products/a1f1a8ff-e734-424a-9e64-015d6e20bd36